Location: Ore Lake
(42.4733°N, 83.8017°W)
Time: 13:51:05
(UTC-04:00)

Daily predictions for brighter satellites

Satellite Brightness Start Highest point End
(mag) Time Altitude Azimuth Time Altitude Azimuth Time Altitude Azimuth
USA 267 3.8 20:45:05 10° NE 20:51:34 66° NW 20:58:03 10° WSW
Cosmos 1980 Rocket 2.3 20:48:10 10° S 20:53:44 62° ESE 20:59:22 10° NNE
Cosmos 1110 Rocket 4.2 20:52:16 10° SSW 20:57:32 84° WNW 21:02:53 10° NNE
SL-8 R/B 4.5 20:53:49 10° WNW 20:58:26 46° SW 21:03:02 10° SE
Helios 1B rocket 3.2 20:55:00 10° NE 20:58:40 30° E 21:02:17 10° SSE
Lacrosse 4 Rocket 2.9 20:56:00 10° N 20:59:28 23° NE 21:02:58 10° ESE
Cosmos 2227 Rocket 4.3 20:54:49 10° NW 20:59:33 28° WSW 21:04:15 10° SSW
CZ-2D R/B 3.3 20:56:12 10° SSE 21:00:05 75° ENE 21:03:59 10° N
Meteor 1-29 4.2 20:57:47 10° NE 21:00:35 22° E 21:03:21 10° SSE
Resurs 1-3 3.6 20:56:53 10° SSE 21:01:16 84° ENE 21:05:41 10° NNW
Cosmos 1869 Rocket 3.6 20:59:51 10° N 21:04:21 68° E 21:08:47 10° SSE
Cosmos 1900 4.4 21:00:09 10° NNW 21:05:16 87° ENE 21:10:25 10° SSE
Cosmos 1825 3.5 21:02:15 10° NNE 21:05:20 23° ENE 21:08:23 10° SE
Envisat 3.4 21:04:08 10° SE 21:08:56 45° ENE 21:13:45 10° N
Cosmos 1302 Rocket 4.0 21:03:50 10° S 21:08:57 63° ESE 21:14:06 10° NNE
SL-16 R/B 3.0 21:04:13 10° SSE 21:08:59 28° ESE 21:13:45 10° NE
Milstar 3 4.1 21:05:09 10° WSW 21:12:00 28° S 21:17:22 11° SE
Cosmos 2242 Rocket 4.4 21:09:41 10° SSE 21:13:42 32° E 21:17:42 10° NNE
Cosmos 1939 Rocket 3.6 21:09:59 10° SE 21:13:42 35° ENE 21:17:22 10° N
DNEPR-1 R/B 4.4 21:10:04 10° SW 21:16:07 76° NW 21:21:06 10° NNE
CZ-4B DEB 3.2 21:15:55 11° SE 21:18:39 39° ENE 21:21:32 10° N
ATLAS 5 CENTAUR R/B 3.8 21:14:28 10° NNW 21:19:11 24° NE 21:24:14 10° E
Meteor 2-20 4.4 21:19:10 10° N 21:25:18 73° E 21:31:24 10° SSE
OAO 3 Rocket 4.2 21:21:52 10° SW 21:26:09 30° S 21:29:18 16° ESE
USA 234 3.3 21:20:01 12° SE 21:26:16 87° NE 21:32:52 10° NW
Resurs 01 Rocket 2.9 21:25:45 10° S 21:29:56 41° W 21:34:11 10° NNW
Atlas Centaur 2 4.1 21:25:35 10° SSW 21:30:42 20° SSE 21:34:14 15° SE
Helios 1A 3.0 21:27:45 10° SSE 21:31:59 89° W 21:36:15 10° NNW
Cosmos 2227 4.3 21:29:54 10° NNW 21:35:40 80° WSW 21:41:22 10° SSE
SAR-Lupe-4 3.6 21:33:09 10° S 21:36:44 79° WSW 21:40:20 10° NNW
Molniya-1 2.4 21:35:26 10° SW 21:37:08 83° NW 21:39:23 10° NE
Cosmos 2360 4.4 21:31:37 10° SSW 21:37:20 76° WNW 21:43:06 10° NNE
FALCON 9 R/B 2.3 21:36:53 10° SSW 21:38:04 14° S 21:38:04 14° S
Cosmos 2142 Rocket 4.4 21:36:41 10° S 21:42:47 84° E 21:48:59 10° N
ERS-1 Rocket 3.3 21:42:11 19° SE 21:45:35 48° ENE 21:50:24 10° N
Cosmos 1408 2.5 21:43:49 10° N 21:47:32 78° E 21:50:06 19° SSE
ERBS 2.3 21:47:45 10° NW 21:51:13 81° SW 21:52:43 31° SE
Cosmos 1455 4.1 21:49:20 10° SW 21:52:44 31° WNW 21:56:09 10° NNW
Cosmos 1869 4.0 21:52:46 10° SSW 21:56:38 55° W 22:00:31 10° N
Cosmos 220 Rocket 4.2 21:55:04 10° NNW 21:59:32 75° WSW 22:02:28 21° S
CENTAUR R/B 4.3 21:55:26 10° WSW 22:01:05 34° NW 22:07:27 10° NNE
SeaSat 1 3.1 22:00:11 26° ESE 22:02:28 41° NE 22:07:05 10° NNW
Cosmos 1992 Rocket 4.0 21:57:41 10° S 22:02:50 62° ESE 22:08:01 10° NNE
Cosmos 2026 Rocket 4.1 21:57:23 10° N 22:03:39 77° W 22:09:47 10° S
USA 229 DEB 4.5 22:04:47 25° SE 22:06:12 27° ESE 22:11:48 10° NE
USA 229 4.5 22:05:03 25° SE 22:06:19 27° ESE 22:11:53 10° ENE
H-2A R/B 4.1 22:07:13 14° ENE 22:07:37 14° ENE 22:09:45 10° NNE
Cosmos 1908 Rocket 4.0 22:06:03 10° N 22:10:10 41° ENE 22:11:04 36° ESE
MetOp-A 4.2 22:08:20 29° SE 22:10:59 59° ENE 22:16:16 10° N
Cosmos 1933 3.2 22:14:41 24° S 22:17:05 89° E 22:21:08 10° N
Cosmos 1867 4.2 22:15:32 10° NNW 22:20:44 43° NE 22:22:40 31° E
COSMOS 2428 4.3 22:23:05 17° ENE 22:23:05 17° ENE 22:25:17 10° NE
YAOGAN 6 3.0 22:20:14 32° SSW 22:21:43 59° W 22:25:19 10° NNW
Cosmos 2263 Rocket 2.1 22:16:21 10° NNW 22:21:57 84° ENE 22:24:22 35° SSE
Abrixas rocket 3.4 22:20:37 10° W 22:23:46 40° NNW 22:25:19 23° NE
Cosmos 1782 Rocket 4.3 22:20:03 10° N 22:24:03 34° ENE 22:24:09 34° E
Okean 2 Rocket 4.3 22:20:25 10° NNE 22:24:13 26° ENE 22:24:13 26° ENE
H-2A R/B 2.7 22:24:03 32° E 22:25:01 35° ENE 22:29:29 10° N
Cosmos 1655 Rocket 4.4 22:19:06 10° NNW 22:25:26 65° W 22:30:51 14° S
Cosmos 2322 Rocket 2.5 22:20:09 10° SSW 22:25:43 67° WNW 22:31:21 10° NNE
Terra 3.4 22:26:53 20° ENE 22:27:13 21° ENE 22:30:43 10° NNE
Cosmos 1733 Rocket 3.9 22:27:37 10° NNW 22:31:55 48° W 22:34:28 22° SSW
Meteor 2-10 Rocket 3.7 22:30:49 24° S 22:34:28 80° E 22:40:18 10° NNE
Cosmos 2360 Rocket 2.2 22:34:16 32° S 22:36:45 60° ESE 22:42:19 10° NNE
Cosmos 1862 Rocket 4.4 22:34:03 12° SSW 22:37:57 50° WNW 22:42:19 10° N
Lacrosse 4 Rocket 2.5 22:34:15 10° NW 22:38:18 39° WSW 22:39:40 31° SSW
SL-08 RB Rocket 3.8 22:37:52 55° ESE 22:38:29 60° ENE 22:42:59 10° N
Cosmos 1825 4.4 22:37:48 10° NW 22:40:50 23° W 22:43:21 13° SW
Cosmos 2322 3.7 22:40:41 44° SSE 22:42:09 57° ESE 22:47:45 10° NNE
NOAA 11 4.3 22:42:48 36° S 22:45:07 73° WSW 22:50:38 10° NNW
Cosmos 968 Rocket 3.4 22:40:10 10° NNW 22:45:22 77° ENE 22:46:23 58° SE
YAOGAN 11 4.5 22:50:13 48° SSW 22:51:08 59° W 22:55:27 10° NNW
Cosmos 2266 Rocket 3.9 22:45:11 10° N 22:51:28 88° E 22:53:45 43° S
SL-16 R/B 3.4 22:47:29 10° SW 22:52:51 43° WNW 22:58:16 10° NNE
Okean 1-7 3.4 22:55:18 53° NE 22:55:18 53° NE 22:58:58 10° NNE
CZ-4C R/B 4.3 22:50:02 10° NNW 22:55:37 25° NE 22:59:44 16° ENE
SPOT 5 3.0 22:54:50 52° SSW 22:55:53 70° WSW 23:00:36 10° NNW
Cosmos 1703 Rocket 3.5 22:57:22 75° SW 22:57:41 82° W 23:02:09 10° N
Cosmos 2221 Rocket 3.6 23:00:03 70° NE 23:00:03 70° NE 23:04:03 10° N
Cosmos 2333 Rocket 4.3 23:04:54 14° ENE 23:04:54 14° ENE 23:05:59 10° NE
ATLAS 5 CENTAUR R/B 2.4 22:58:31 10° NW 23:04:33 83° SW 23:05:54 58° SSE
Nimbus 7 Rocket 4.3 22:59:57 10° NNE 23:05:54 87° WNW 23:08:11 40° SSW
Cosmos 2237 Rocket 4.5 23:14:49 11° ENE 23:14:49 11° ENE 23:15:04 10° ENE
SPOT 1/Viking Rocket 3.6 23:11:28 64° SSW 23:12:09 73° WSW 23:17:23 10° NNW
ARGOS 3.6 23:11:51 44° SW 23:13:07 54° W 23:18:24 10° NNW
Cosmos 2278 Rocket 3.7 23:09:07 10° N 23:13:37 23° NE 23:14:18 23° ENE
CARTOSAT-1 4.3 23:15:41 44° NNE 23:15:41 44° NNE 23:18:58 10° N
Atlas Centaur 2 4.0 23:12:27 10° SW 23:16:54 28° SSW 23:16:54 28° SSW
SL-19 R/B 4.4 23:14:45 10° NNE 23:20:40 62° E 23:20:40 62° E
Cosmos 1553 Rocket 4.5 23:23:21 45° ENE 23:23:21 45° ENE 23:28:46 10° NNE
Cosmos 1844 Rocket 2.8 23:20:17 10° NNW 23:25:44 61° ENE 23:25:44 61° ENE
Meteor 1-10 Rocket 4.2 23:35:21 84° E 23:35:21 84° E 23:41:13 10° NNE
Meteor 1-11 Rocket 4.2 23:33:22 10° N 23:38:03 49° NE 23:38:03 49° NE
SeaSat 1 3.9 23:39:59 28° WSW 23:40:04 28° WSW 23:44:17 10° NW
H-2A R/B 3.2 23:44:20 41° NW 23:44:20 41° NW 23:47:22 10° NNW
Cosmos 2219 Rocket 3.2 23:45:20 34° NE 23:45:20 34° NE 23:48:38 10° NNE
Cosmos 1777 Rocket 4.3 23:38:17 10° NNW 23:43:02 62° WNW 23:43:02 62° WNW
S3M 4.0 23:51:34 66° NE 23:51:34 66° NE 23:57:07 10° NNE
